Weather reports worldwide

Advertisment
Nashville International, United States of America (72327): temperature & dewpoint: 20.06.2019 10:00:00 - 26.06.2019 10:00:00 (CDT)Nashville International, United States of America (72327): wind speed & gusts: 20.06.2019 10:00:00 - 26.06.2019 10:00:00 (CDT)Nashville International, United States of America (72327): wind direction: 20.06.2019 10:00:00 - 26.06.2019 10:00:00 (CDT)Nashville International, United States of America (72327): reduced air pressure: 20.06.2019 10:00:00 - 26.06.2019 10:00:00 (CDT)Nashville International, United States of America (72327): visibility: 20.06.2019 10:00:00 - 26.06.2019 10:00:00 (CDT)Nashville International, United States of America (72327): precipitation: 20.06.2019 10:00:00 - 26.06.2019 10:00:00 (CDT)
Date & Time tt [°C] td [°C] ff [km/h] ff [kn] fx [km/h] fx [kn] dd ppp [hPa] vv [km] rr [mm]
26.06.2019 10:00:00 29,4 21,7 0 0 - - N 1021,2 16 -
26.06.2019 09:00:00 27,8 21,1 0 0 - - N 1021,3 16 -
26.06.2019 08:00:00 24,4 20,6 5 3 - - S 1021,3 15 -
26.06.2019 07:00:00 23,3 20,0 0 0 - - N 1021,0 16 0,0
26.06.2019 06:00:00 22,2 19,4 0 0 - - N 1020,7 16 -
26.06.2019 05:00:00 21,1 18,9 8 4 - - S 1020,1 16 -
26.06.2019 04:00:00 21,7 19,4 5 3 - - S 1019,8 16 0,0
26.06.2019 03:00:00 23,3 19,4 0 0 - - N 1020,0 16 -
26.06.2019 02:00:00 22,8 19,4 8 4 - - S 1019,4 16 -
26.06.2019 01:00:00 22,2 19,4 5 3 - - S 1019,2 16 0,0
26.06.2019 00:00:00 22,8 19,4 5 3 - - S 1018,6 16 -
25.06.2019 23:00:00 23,3 18,9 8 4 - - S 1018,1 16 -
25.06.2019 22:00:00 24,4 18,9 5 3 - - SW 1018,4 16 0,0
25.06.2019 21:00:00 25,6 18,3 5 3 - - SW 1017,7 16 -
25.06.2019 20:00:00 27,8 16,7 5 3 - - W 1017,3 16 -
25.06.2019 19:00:00 28,9 16,1 9 5 - - W 1016,9 16 0,0
25.06.2019 18:00:00 30,0 16,7 11 6 - - W 1016,9 16 -
25.06.2019 17:00:00 31,1 16,7 9 5 - - WSW 1017,1 16 -
25.06.2019 16:00:00 31,1 16,7 15 8 - - WSW 1017,0 16 0,0
25.06.2019 15:00:00 30,0 16,1 11 6 - - WSW 1017,3 16 -
25.06.2019 14:00:00 30,6 16,7 15 8 - - W 1017,5 16 -
25.06.2019 13:00:00 30,6 17,8 5 3 - - - 1017,7 16 0,0
25.06.2019 12:00:00 28,9 17,2 11 6 - - W 1017,9 16 -
25.06.2019 11:00:00 28,3 18,3 5 3 - - SSW 1017,7 16 -
25.06.2019 10:00:00 27,2 19,4 5 3 - - WSW 1017,7 16 0,0
25.06.2019 09:00:00 26,1 19,4 5 3 - - - 1017,4 16 -
25.06.2019 08:00:00 24,4 19,4 9 5 - - WNW 1016,8 16 -
25.06.2019 07:00:00 23,3 19,4 8 4 - - WNW 1016,3 16 0,0
25.06.2019 06:00:00 21,7 18,9 9 5 - - NNW 1015,8 16 -
25.06.2019 05:00:00 21,7 18,9 5 3 - - SW 1015,1 16 -
25.06.2019 04:00:00 21,1 18,3 5 3 - - S 1014,7 16 0,0
25.06.2019 03:00:00 22,2 18,3 0 0 - - N 1014,2 16 -
25.06.2019 02:00:00 22,8 18,3 5 3 - - WSW 1013,6 16 -
25.06.2019 01:00:00 22,8 18,3 5 3 - - WSW 1013,5 16 0,0
25.06.2019 00:00:00 22,8 18,3 8 4 - - SSW 1013,3 16 -
24.06.2019 23:00:00 23,9 18,3 5 3 - - SW 1012,8 16 -
24.06.2019 22:00:00 24,4 18,3 5 3 - - SW 1012,6 16 0,0
24.06.2019 21:00:00 25,0 18,3 8 4 - - SW 1012,0 16 -
24.06.2019 20:00:00 26,7 18,3 8 4 - - WSW 1011,8 16 -
24.06.2019 19:00:00 27,2 18,9 11 6 - - SW 1011,3 16 0,0
24.06.2019 18:00:00 27,8 17,8 15 8 - - SW 1010,6 16 -
24.06.2019 17:00:00 28,9 17,8 13 7 - - WSW 1010,2 16 -
24.06.2019 16:00:00 28,9 17,8 16 9 - - W 1010,2 16 0,0
24.06.2019 15:00:00 28,3 18,9 18 10 - - W 1010,2 16 -
24.06.2019 14:00:00 28,3 20,0 24 13 50 27 W 1010,1 10 -
24.06.2019 13:00:00 28,3 20,6 24 13 57 31 WSW 1009,0 16 -
24.06.2019 12:00:00 28,3 21,1 31 17 52 28 WSW 1008,6 16 0,0
24.06.2019 11:00:00 26,1 22,8 13 7 - - S 1008,8 10 0,0
24.06.2019 10:00:00 22,8 20,6 13 7 - - SE 1008,8 15 2,0
24.06.2019 09:00:00 21,7 20,0 11 6 - - SE 1010,3 4,0 7,1
24.06.2019 08:00:00 21,7 19,4 11 6 - - SSE 1010,3 8 0,5
24.06.2019 07:00:00 22,2 19,4 5 3 - - SSW 1010,7 16 0,0
24.06.2019 06:00:00 22,8 18,3 13 7 - - SW 1011,4 16 -
24.06.2019 05:00:00 22,2 18,3 8 4 - - SW 1009,9 16 -
24.06.2019 04:00:00 22,8 18,9 15 8 - - SSW 1009,4 16 0,0
24.06.2019 03:00:00 23,3 20,6 11 6 - - SSW 1009,4 16 -
24.06.2019 02:00:00 22,8 20,6 16 9 - - S 1010,8 16 -
24.06.2019 01:00:00 22,8 20,6 16 9 - - S 1011,4 16 0,5
24.06.2019 00:00:00 22,8 21,1 15 8 - - SSE 1012,3 15 1,5
23.06.2019 23:00:00 23,3 20,6 9 5 - - SSW 1013,1 11 0,3
23.06.2019 22:00:00 22,8 20,6 8 4 52 28 WNW 1013,4 11 1,3
23.06.2019 21:00:00 28,3 20,6 8 4 - - SW 1012,3 16 -
23.06.2019 20:00:00 30,0 20,0 9 5 - - SSW 1012,0 16 -
23.06.2019 19:00:00 31,1 20,6 15 8 - - SSW 1011,7 16 -
23.06.2019 18:00:00 32,2 21,1 16 9 - - SSW 1011,4 16 -
23.06.2019 17:00:00 32,8 20,6 18 10 - - SSW 1011,5 16 -
23.06.2019 16:00:00 32,2 20,0 21 11 - - SSW 1012,0 16 -
23.06.2019 15:00:00 32,8 20,6 18 10 - - SW 1013,2 16 0,0
23.06.2019 14:00:00 31,1 22,8 24 13 - - S 1014,0 16 0,0
23.06.2019 13:00:00 31,7 22,2 11 6 - - - 1014,9 16 0,0
23.06.2019 12:00:00 31,7 22,2 15 8 - - SW 1015,6 16 -
23.06.2019 11:00:00 30,0 21,1 9 5 - - - 1016,1 16 -
23.06.2019 10:00:00 28,3 20,0 13 7 - - SSW 1016,3 16 0,0
23.06.2019 09:00:00 25,6 18,9 11 6 - - S 1017,0 16 -
23.06.2019 08:00:00 23,3 18,3 9 5 - - S 1016,6 16 -
23.06.2019 07:00:00 22,2 18,9 11 6 - - S 1016,7 16 0,0
23.06.2019 06:00:00 21,1 18,3 8 4 - - SSE 1016,5 16 -
23.06.2019 05:00:00 20,6 18,3 15 8 - - S 1015,7 16 -
23.06.2019 04:00:00 20,6 18,3 9 5 - - S 1015,9 16 0,0
23.06.2019 03:00:00 20,6 18,3 5 3 - - S 1016,2 16 -
23.06.2019 02:00:00 21,7 18,9 0 0 - - N 1016,4 16 -
23.06.2019 01:00:00 22,0 19,0 0 0 - - N - 16 0,0
23.06.2019 00:00:00 22,8 18,9 0 0 - - N 1015,9 16 -
22.06.2019 23:00:00 22,8 18,9 8 4 - - SSE 1015,9 16 -
22.06.2019 22:00:00 24,4 20,0 0 0 - - N 1015,3 16 0,0
22.06.2019 21:00:00 25,0 20,6 5 3 - - SW 1015,3 16 -
22.06.2019 20:00:00 25,0 20,0 5 3 - - SSE 1015,7 16 -
22.06.2019 19:00:00 25,6 20,0 15 8 - - S 1013,8 16 -
22.06.2019 18:00:00 25,0 20,6 13 7 61 33 SE 1015,0 16 3,3
22.06.2019 17:00:00 23,9 20,6 26 14 61 33 NNE 1017,3 10 3,0
22.06.2019 16:00:00 30,6 19,4 11 6 - - W 1017,1 16 0,0
22.06.2019 15:00:00 31,1 19,4 16 9 - - S 1015,9 16 -
22.06.2019 14:00:00 29,4 19,4 15 8 - - S 1015,6 16 -
22.06.2019 13:00:00 27,2 20,0 21 11 - - S 1015,9 16 -
22.06.2019 12:00:00 23,9 20,0 16 9 - - S 1017,7 16 -
22.06.2019 11:00:00 22,8 19,4 0 0 - - N 1018,9 16 0,5
22.06.2019 10:00:00 22,8 18,3 28 15 - - N 1019,5 11 0,0
22.06.2019 09:00:00 25,0 20,0 11 6 - - SSW 1017,2 16 -
22.06.2019 08:00:00 23,9 21,1 15 8 - - S 1016,5 16 -
22.06.2019 07:00:00 22,2 20,0 8 4 - - S 1016,3 16 0,0
22.06.2019 06:00:00 19,4 18,9 8 4 - - S 1015,4 16 -
22.06.2019 05:00:00 20,0 19,4 5 3 - - SW 1014,6 16 -
22.06.2019 04:00:00 20,0 19,4 5 3 - - W 1014,4 16 0,0
22.06.2019 03:00:00 20,0 18,9 0 0 - - N 1013,8 16 -
22.06.2019 02:00:00 20,0 18,9 0 0 - - N 1013,8 16 -
22.06.2019 01:00:00 21,1 20,0 15 8 - - S 1012,3 16 0,0
22.06.2019 00:00:00 21,1 20,0 18 10 - - SSE 1011,8 16 -
21.06.2019 23:00:00 21,1 20,0 11 6 - - SE 1016,9 16 -
21.06.2019 22:00:00 21,7 20,6 5 3 - - N 1017,3 13 0,0
21.06.2019 21:00:00 21,7 18,9 13 7 83 45 NNW 1017,2 16 1,0
21.06.2019 20:00:00 22,2 18,9 39 21 83 45 NW 1012,9 6 0,0
21.06.2019 19:00:00 30,6 22,2 11 6 - - SSW 1012,1 16 0,0
21.06.2019 18:00:00 31,7 21,7 22 12 - - S 1011,9 16 -
21.06.2019 17:00:00 32,2 21,7 16 9 - - S 1012,9 16 -
21.06.2019 16:00:00 31,1 20,6 16 9 - - S 1013,8 16 0,0
21.06.2019 15:00:00 32,8 20,6 16 9 - - S 1014,0 16 -
21.06.2019 14:00:00 31,7 20,0 13 7 - - SSE 1014,8 16 -
21.06.2019 13:00:00 30,6 19,4 13 7 - - S 1015,2 16 0,0
21.06.2019 12:00:00 30,0 18,9 0 0 - - N 1015,8 16 -
21.06.2019 11:00:00 28,3 18,9 9 5 - - - 1016,2 16 -
21.06.2019 10:00:00 27,2 17,2 5 3 - - SE 1016,1 16 0,0
21.06.2019 09:00:00 26,1 18,3 13 7 - - ESE 1016,3 16 -
21.06.2019 08:00:00 23,9 18,9 5 3 - - SE 1016,1 16 -
21.06.2019 07:00:00 21,7 18,3 0 0 - - N 1015,8 16 0,0
21.06.2019 06:00:00 20,0 17,8 0 0 - - N 1015,4 16 -
21.06.2019 05:00:00 20,0 17,8 0 0 - - N 1014,5 16 -
21.06.2019 04:00:00 18,9 17,2 8 4 - - S 1013,9 16 0,0
21.06.2019 03:00:00 19,4 17,8 8 4 - - S 1013,7 16 -
21.06.2019 02:00:00 19,4 17,8 8 4 - - S 1013,6 16 -
21.06.2019 01:00:00 20,0 17,8 8 4 - - S 1013,6 16 0,0
21.06.2019 00:00:00 22,2 17,2 0 0 - - N 1013,5 16 -
20.06.2019 23:00:00 23,9 17,2 5 3 - - NW 1012,8 16 -
20.06.2019 22:00:00 24,4 17,8 9 5 - - NNW 1012,1 16 0,0
20.06.2019 21:00:00 25,0 17,8 11 6 - - NNW 1011,0 16 -
20.06.2019 20:00:00 26,7 17,8 11 6 - - NW 1010,3 16 -
20.06.2019 19:00:00 27,8 17,2 16 9 - - WNW 1009,9 16 0,0
20.06.2019 18:00:00 28,9 17,2 21 11 - - WNW 1009,1 16 -
20.06.2019 17:00:00 28,9 18,3 16 9 - - WNW 1008,9 16 -
20.06.2019 16:00:00 29,4 18,9 16 9 - - W 1008,4 16 0,0
20.06.2019 15:00:00 27,8 18,9 9 5 - - WSW 1008,4 16 -
20.06.2019 14:00:00 28,3 20,0 15 8 - - W 1008,5 16 -
20.06.2019 13:00:00 26,1 19,4 13 7 - - SW 1008,5 16 -
20.06.2019 12:00:00 25,6 19,4 13 7 - - WSW 1008,4 16 -
20.06.2019 11:00:00 24,4 19,4 9 5 - - WSW 1008,2 16 0,0
20.06.2019 10:00:00 22,2 18,9 9 5 - - SSW 1007,7 16 0,3

tt = temperature
td = dewpoint
ff = wind speed
fx = gusts
dd = wind direction
ppp = reduced air pressure
vv = visibility
rr = precipitation

Next stations